Погода в Красном Коммунаре

Россия / Оренбургская область     51°57′34″N   55°22′00″E
темп.,
°C
ветер,
м/с
пор.,
м/с
влажн.,
%
обл.,
%
осадки,
мм/ч
давл.,
гПа
погр.,
м
26 января, вт
вт2623:00−6ююв489599 0.0 1035244
02:00−7ю469497 0.0 1035151
05:00−9ю339398 0.0 103544
08:00−11ююв348998 0.0 103572
11:00−9ююв479299 0.0 1035175
14:00−5ю479193 0.0 1035323
17:00−6ююв469491 0.0 1034139
20:00−7ююв469697 0.0 1035107
27 января, ср
ср2723:00−2ю599798 0.0 1033432
02:00−2ю5894100 0.0 1034500
05:00−3ююз4794100 0.1 1034446
08:00−3ю5994100 0.0 1034475
11:00−4ю5994100 0.1 1034394
14:00−5ю5894100 0.0 1034355
17:00−6ююв479595 0.0 1033161
20:00−9ююв479352 0.0 1033105
28 января, чт
чт2823:00−10юв479342 0.0 1032114
02:00−11ююв489262 0.0 1032136
05:00−12юв499156 0.0 1031155
08:00−13юв479177 0.0 1030131
11:00−11юв5108882 0.0 1029256
14:00−8юв5986100 0.0 1028339
17:00−9вюв4689100 0.0 1027124
20:00−9юв4988100 0.0 1026165
29 января, пт
пт2923:00−9юв4887100 0.0 1025160
02:00−9юв4986100 0.0 1024176
05:00−9вюв41084100 0.0 1022215
08:00−9вюв51283100 0.0 1020267
11:00−7вюв61381100 0.0 1019345
14:00−5юв71480100 0.0 1017468
17:00−4юв61482100 0.0 1014509
20:00−3юв71392100 0.5 1014524
30 января, сб
сб3023:00−3юв61292100 0.7 1014572
02:00−4юв5995100 0.6 1014318
05:00−5юв4796100 0.7 1015183
08:00−3юв4696100 0.1 1016196
11:00−2юз2297100 0.1 1014125
14:00−1всв1195100 0.0 1014110
17:000юв2495100 0.0 1014319
20:00−1юв2496100 0.0 1014156